CAPE
218 70 74 60 11 0 0 0 1 176 320 265 72 85 23 27 7 11 1 2 0 0 0 0 0 0 0 0 0 0 0 0 1 0 5 1 0 17 20 5 12 33 15
12 12 4 0 0 7 1 27 418 154 130 91 85 24 4 8 25 0 0 0 0 0 0 0 0 0 4 15 12 0 0 1 23 23 0 0 1 0 0 0 5 8 21
12 3 14 81 56 140 90 271 127 54 1 0 40 61 16 0 0 0 0 0 0 0 0 1 11 9 0 1 0 5 24 17 21 20 3 0 0 0 2 1 2 16 20
274 294 230 157 114 152 112 124 41 15 29 6 2 0 0 0 0 0 0 0 4 4 25 29 11 0 0 2 22 18 10 2 0 0 0 0 0 0 6 3 6 2 20
18 12 3 8 14 14 1 0 0 0 0 0 0 0 0 0 0 0 0 0 0 1 3 11 0 4 55 4 2 2 0 0 0 0 0 0 0 0 0 0 0 0 0
0 0 0 0 0 0 0 0 0 0 0 0 0 0 0 0 0 0 0 0 0 0 0 0 0 16 6 9 11 3 1 3 0 0 0 0 0 0 0 0 0 0 0
0 0 0 0 0 0 0 0 0 0 2 0 0 0 0 0 0 0 0 0 0 0 0 0 0 3 10 13 28 13 9 10 21 8 5 0 11 0 0 0 0 0 0
0 0 0 0 0 0 0 0 9 22 9 0 0 0 0 0 0 0 0 0 0 0 0 0 0 0 0 0 0 0 0 0 0 3 1 5 7 0 0 0 0 0 0
0 0 0 0 0 13 13 16 20 14 0 0 0 0 0 0 0 0 0 0 0 0 0 0 0 0 0 0 0 0 0 0 0 0 0 0 0 0 0 0 2 0 0
0 0 12 7 19 25 46 35 0 0 0 0 0 0 0 0 0 0 0 0 0 0 0 0 1 0 0 0 0 0 0 0 0 0 0 0 0 0 2 0 2 0 0
0 1 7 6 24 12 7 0 0 0 0 0 1 1 0 0 0 0 0 0 0 0 0 0 0 0 0 0 0 0 0 0 0 0 0 1 29 15 7 5 22 23 16
7 10 11 18 42 20 0 0 0 0 0 0 0 0 0 0 0 0 0 0 0 0 0 0 0 0 0 0 0 0 0 0 0 0 0 0 0 0 0 1 7 4 1
37 37 44 43 19 14 0 0 0 0 0 0 0 0 0 0 0 0 0 0 0 0 0 0 2 0 0 0 0 1 0 0 0 0 0 0 0 0 0 0 0 0 0
16 26 0 0 1 11 17 4 0 0 0 0 0 0 0 0 0 0 0 0 0 0 0 0 0 0 0 0 0 0 0 0 0 0 0 0 0 0 0 0 0 0 0
4 11 2 27 25 0 0 0 0 0 0 0 0 0 0 0 0 0 0 0 0 0 0 0 0 0 0 0 0 0 0 0 0 0 0 0 1 1 1 0 0 0 2
18 5 1 10 31 0 0 0 0 0 0 0 0 0 0 0 0 0 0 0 0 0 0 0 0 0 0 0 0 0 0 0 0 0 1 20 11 4 2 1 1 1 4
0 0 48 5 12 26 11 0 0 0 0 0 0 0 0 0 0 0 0 0 0 0 0 0 0 0 0 0 0 0 0 0 0 0 5 0 9 9 10 5 4 1 2
11 5 1 2 5 35 24 0 0 0 0 0 0 0 0 0 0 0 0 0 0 1 0 0 0 0 0 0 0 0 0 0 0 0 0 1 2 11 8 5 4 2 3
0 0 3 0 0 0 6 2 0 0 0 0 0 0 0 0 0 0 0 1 4 0 0 1 0 0 0 0 0 0 0 0 0 0 0 1 1 10 16 12 3 0 0
0 0 1 0 2 2 0 0 0 2 0 2 0 0 0 0 0 0 0 3 0 0 0 0 0 0 0 0 0 0 0 0 0 0 1 0 2 1 12 6 6 2 1
7 6 6 4 9 6 4 0 11 11 5 0 0 0 0 0 0 0 0 0 0 0 0 0 0 0 0 0 0 0 0 0 0 0 0 1 2 1 1 0 7 3 0
3 8 9 10 6 0 0 0 0 0 0 0 0 0 0 0 0 0 0 0 0 0 0 0 0 0 0 0 0 0 0 0 0 0 0 0 0 0 0 0 0 1 1
17 12 14 9 0 0 0 0 0 0 0 0 0 0 0 0 0 0 0 0 0 0 0 0 0 0 0 0 0 0 0 0 0 0 0 0 0 0 0 0 0 0 0
14 2 1 0 0 0 0 0 0 0 0 0 0 0 0 0 0 0 0 0 0 0 0 0 0 0 0 0 0 0 0 0 0 0 0 0 0 0 0 0 0 0 0
0 1 0 0 0 0 0 0 0 0 0 0 0 0 0 0 0 1 0 1 2 0 0 0 0 0 0 0 0 0 0 0 0 0 0 0 0 2 0 0 0 1 0
0 0 0 0 0 0 0 0 0 0 0 0 0 0 0 0 0 0 1 3 2 1 0 0 0 0 0 0 0 0 0 0 0 0 0 0 0 6 1 2 0 0 2
CIN
-635 -609 -471 -396 -177 0 0 0 -40 -101 -82 -66 -160 -141 -55 -45 -64 -99 -41 -36 0 0 0 0 0 0 0 0 0 0 0 -20 -23 -4 -118 -60 0 -119 -102 -140 -141 -90 -115
-553 -445 -226 0 -61 -430 -154 -259 -46 -99 -86 -32 -26 -9 -45 -70 -72 0 0 0 0 0 0 0 0 0 -47 -69 -60 0 0 -23 -53 -52 -18 -38 -65 -8 -7 0 -117 -88 -87
-346 -59 -309 -265 -207 -123 -189 -67 -103 -102 -32 0 -15 -17 -19 0 0 0 0 0 0 0 0 -2 -48 -43 0 -14 0 -43 -57 -71 -80 -83 -79 -49 0 0 -98 -78 -17 -116 -137
-156 -118 -151 -184 -199 -128 -98 -77 -101 -83 -16 -53 -11 0 0 0 0 0 0 0 -76 -68 -67 -63 -37 0 0 -13 -49 -59 -93 -40 0 0 0 0 0 0 -44 -75 -124 -107 -97
-68 -55 -52 -61 -89 -42 -50 0 0 0 0 0 0 0 0 0 0 0 0 0 0 -25 -101 -83 0 -24 -34 -98 -24 -40 -24 0 0 0 0 0 0 0 0 0 0 0 0
0 0 0 0 0 0 0 0 0 0 0 0 0 0 0 0 0 0 0 0 0 0 0 0 0 -45 -55 -51 -71 -78 -90 -126 0 0 0 0 0 0 0 0 0 0 -2
0 0 0 0 0 0 0 0 0 0 -39 0 0 0 0 0 0 0 0 0 0 0 0 0 0 -34 -44 -43 -34 -33 -67 -83 -78 -71 -50 0 -45 -5 0 0 0 0 0
0 0 0 0 0 0 0 0 -104 -63 -69 0 0 0 0 0 0 0 0 0 0 0 0 0 0 -11 0 0 0 -46 0 0 0 -89 -38 -58 -48 -65 0 0 0 0 0
0 0 0 0 -7 -55 -64 -65 -48 -45 0 0 0 0 0 0 0 0 0 0 0 0 0 0 0 0 0 0 0 0 0 0 0 -7 0 0 0 0 0 0 -43 0 0
0 0 -54 -46 -38 -53 -53 -40 0 0 0 0 0 0 0 0 0 0 0 0 0 0 0 0 -60 -16 -79 0 0 0 0 0 0 0 0 0 0 0 -28 0 -64 -43 -1
0 -9 -58 -66 -53 -55 -55 0 0 0 0 0 -142 -99 -10 0 0 0 0 0 0 0 0 0 0 0 0 0 0 0 0 0 0 0 0 -99 -79 -79 -71 -27 -42 -41 -36
-42 -53 -78 -79 -44 -76 -12 0 0 0 0 0 -32 0 0 0 0 0 0 0 0 0 0 0 0 0 0 0 0 0 0 0 0 0 0 0 0 0 0 -9 -59 -89 -37
-32 -48 -48 -56 -66 -101 0 0 0 0 0 0 0 0 0 0 0 0 0 0 0 0 0 0 -57 0 -7 0 0 -42 0 0 0 0 0 0 0 0 0 0 0 0 0
-40 -39 0 0 -11 -82 -86 -120 0 0 0 0 0 0 0 0 0 0 0 0 0 0 0 0 0 0 0 0 0 -9 0 0 0 0 0 0 0 0 0 0 0 0 0
-16 -25 -40 -72 -74 0 0 0 0 0 0 0 0 0 0 0 0 0 0 0 0 0 0 0 0 0 0 0 0 -8 0 0 0 0 0 0 -1 -2 -2 0 0 0 0
-44 -38 -22 -50 -54 0 0 0 0 0 0 0 0 0 0 0 0 0 0 0 0 0 0 0 0 0 0 0 0 0 0 0 0 0 -18 -1 -2 0 -1 0 0 0 0
0 0 -54 -56 -71 -108 -108 0 0 0 0 0 0 0 0 0 0 0 0 0 0 0 0 0 0 0 0 0 0 0 0 0 0 0 -14 -1 -1 0 0 0 0 0 0
-53 -44 -23 -78 -59 -61 -64 0 0 0 0 0 0 0 0 0 0 0 0 0 0 -17 0 0 0 0 0 0 0 0 0 0 0 0 -2 0 0 -1 0 0 0 0 0
0 0 -66 0 0 0 -51 -76 0 0 0 0 0 0 0 0 0 0 0 -23 -46 -31 -3 -30 0 0 0 0 0 0 0 0 0 0 -1 0 0 -1 0 0 0 0 0
0 0 -13 -2 -39 -83 0 -26 0 -69 0 -49 0 -6 -3 0 0 -4 -24 -40 0 0 -21 0 0 0 0 0 0 0 0 0 0 0 0 0 0 0 0 0 0 0 0
-72 -53 -52 -72 -55 -69 -77 -3 -60 -70 -69 0 0 0 0 0 0 0 0 0 0 0 0 0 0 0 0 0 0 0 0 0 0 0 0 -1 0 0 0 -2 -3 0 0
-69 -60 -58 -62 -92 0 0 0 0 0 0 0 0 -8 -10 0 0 0 0 0 0 0 0 0 0 0 0 0 0 0 0 0 0 0 0 0 0 0 0 0 0 -2 0
-37 -36 -43 -74 -45 0 0 0 0 0 0 0 0 0 0 0 0 0 0 0 0 0 0 0 0 0 0 0 0 0 0 0 0 0 0 0 0 0 0 0 0 0 0
-40 -32 -38 -1 0 0 0 0 0 0 0 0 0 0 0 0 0 0 0 0 0 0 0 0 0 0 0 0 0 0 0 0 0 0 0 0 0 0 0 0 0 0 0
0 -36 -6 -5 -5 0 0 0 0 0 0 0 0 0 0 0 0 -8 -1 -6 -6 -12 0 0 0 0 0 0 0 0 0 0 0 0 0 0 0 -52 0 0 -40 -21 -1
0 0 0 0 -4 0 0 0 0 0 0 0 0 0 0 0 0 -3 -8 -8 -8 -9 0 0 0 0 0 0 0 0 0 0 0 0 0 0 0 -46 -39 -28 0 0 -24
Wind_Speed
9 9 13 9 10 9 3 2 3 6 3 4 6 8 6 4 6 5 5 6 6 5 5 6 3 2 2 2 3 2 2 2 2 3 2 4 3 3 5 5 5 6 5
10 8 10 9 6 4 4 4 3 7 10 9 10 7 5 5 5 6 7 6 7 7 6 7 5 4 4 3 1 2 0 3 0 3 3 4 5 7 6 5 5 6 6
6 3 4 3 4 2 2 5 10 12 12 11 4 3 6 5 5 6 6 6 6 6 4 4 2 2 3 2 2 2 1 1 2 1 3 2 3 3 5 3 5 7 5
4 7 7 7 6 8 9 11 11 9 6 5 5 3 8 8 7 6 7 6 5 5 3 2 3 3 3 5 4 2 2 2 2 2 3 3 3 4 2 3 8 4 7
17 16 12 9 13 12 10 8 8 8 7 4 8 8 7 9 7 7 7 7 6 6 6 6 4 3 5 4 3 2 2 1 2 3 3 3 3 3 3 3 2 4 6
13 14 7 7 12 10 9 4 6 6 8 7 7 8 8 7 11 13 7 6 6 5 5 6 6 2 4 5 5 5 5 3 3 2 3 3 4 3 2 3 3 3 4
10 11 5 5 8 7 9 5 5 5 4 5 7 8 9 6 9 10 8 5 5 5 6 5 5 2 2 1 3 5 6 7 7 4 3 5 4 4 3 3 3 3 5
7 6 4 5 6 5 6 6 4 2 4 5 7 10 8 5 7 8 8 6 6 7 6 5 4 4 6 5 4 4 5 6 7 4 4 7 5 7 5 5 4 4 4
5 5 5 5 5 5 5 5 4 5 6 7 6 8 8 5 7 10 8 7 6 7 7 3 4 5 2 1 5 6 7 8 8 10 8 11 13 15 12 2 4 2 4
6 5 4 5 6 5 6 6 6 6 6 6 7 7 7 5 7 8 7 4 6 5 7 6 3 2 4 6 3 3 6 6 6 8 8 8 8 8 12 6 2 4 5
5 7 7 8 7 7 6 6 6 7 7 6 6 4 5 6 4 7 7 4 3 5 5 5 5 8 4 7 3 2 5 5 9 5 5 7 6 4 3 3 4 5 4
5 7 9 8 7 6 8 6 7 7 6 5 6 5 3 4 5 5 7 5 4 3 5 4 5 13 10 7 5 8 9 6 4 6 5 5 5 4 3 3 5 5 4
7 7 6 7 7 7 7 6 5 5 4 4 4 4 3 4 3 5 9 11 11 5 6 7 8 10 10 7 12 13 8 4 4 4 5 4 4 5 6 5 4 5 6
7 5 4 6 6 6 4 5 4 4 3 4 4 3 2 2 3 4 5 4 7 8 9 6 7 7 7 6 6 6 5 4 4 5 5 6 5 5 4 3 3 4 4
5 4 5 4 6 6 5 4 4 4 2 4 2 2 4 1 2 2 3 5 5 4 6 2 3 4 4 5 5 5 5 5 6 6 6 5 7 6 5 6 6 6 6
5 4 3 2 4 4 6 5 8 7 7 9 6 4 2 3 4 7 10 11 12 5 0 1 2 3 3 4 4 4 4 7 6 5 5 7 8 9 9 9 8 6 5
5 4 4 4 4 5 4 5 5 3 2 5 6 8 7 1 8 10 11 13 10 7 0 3 2 2 2 4 4 3 3 5 6 6 6 9 9 9 9 9 8 5 4
5 5 4 5 4 4 3 4 4 4 3 2 1 3 2 4 7 11 11 10 6 4 2 3 2 1 2 3 4 3 4 7 7 7 8 9 9 8 8 9 8 7 2
4 4 4 5 4 4 4 4 3 4 3 2 2 3 5 7 5 7 10 3 4 3 4 6 4 4 4 4 4 3 4 5 7 8 8 9 9 8 8 8 8 11 8
5 9 7 4 4 4 5 5 5 5 5 5 5 4 4 5 2 3 4 2 3 4 4 5 5 4 4 5 5 4 5 7 8 8 9 9 7 6 6 7 7 7 7
4 4 5 5 5 4 4 5 4 5 5 4 3 3 2 6 6 6 5 6 5 4 4 5 5 7 6 5 5 4 4 7 8 8 8 9 8 7 6 6 6 7 6
2 3 4 4 5 5 4 4 4 5 5 4 3 4 7 5 5 5 5 6 5 5 4 4 4 4 5 5 6 5 6 8 8 8 7 8 7 6 5 5 6 6 7
2 4 4 4 5 5 5 5 5 5 5 5 5 5 6 5 5 5 5 4 4 4 5 5 5 6 6 5 5 5 6 7 7 7 7 8 7 4 4 4 5 5 5
4 6 4 4 4 3 4 5 5 6 5 4 4 5 5 6 5 5 5 5 4 5 5 4 4 7 6 5 5 6 6 7 6 7 9 6 6 3 3 3 3 4 4
5 3 3 4 4 5 5 5 5 5 5 5 4 5 5 4 4 4 4 3 4 4 5 5 5 7 8 9 10 13 12 12 9 8 6 6 7 4 2 2 3 2 2
6 6 4 5 4 4 4 5 5 5 5 5 5 4 4 3 3 3 3 4 3 3 5 4 5 9 10 8 11 12 12 14 12 13 8 6 5 3 2 3 6 2 3
Wind_Direction
89 106 104 100 87 74 53 326 293 278 81 114 94 109 116 150 128 120 96 95 96 78 69 85 80 88 75 352 2 27 31 121 164 288 243 296 286 281 284 271 273 269 258
52 59 62 79 71 36 324 311 303 61 55 40 56 32 103 106 105 98 91 99 94 72 59 56 37 24 359 357 353 313 306 325 348 296 289 310 305 296 256 295 278 285 250
65 4 55 100 90 50 342 63 79 78 81 97 103 137 144 158 116 112 114 96 86 96 90 75 353 337 314 301 258 268 298 9 357 292 298 298 294 306 319 336 325 307 280
30 24 29 49 50 56 78 79 81 78 43 80 74 87 75 71 64 69 80 78 61 57 59 48 332 357 306 286 262 300 82 33 353 333 304 282 280 309 344 328 340 346 345
64 44 17 63 75 73 55 77 90 97 108 103 76 52 63 57 40 47 43 45 40 14 359 5 8 336 345 92 120 112 63 350 278 266 267 260 287 324 325 299 287 306 314
104 104 128 87 85 89 91 98 46 65 67 53 53 77 66 64 56 52 49 39 19 13 348 328 306 246 135 159 170 182 213 209 263 233 248 261 276 264 276 270 295 316 321
101 110 109 88 84 80 100 98 54 38 33 62 78 91 81 73 58 49 38 27 355 342 339 329 327 0 324 108 252 286 294 298 219 214 254 259 250 253 247 274 241 240 263
96 125 135 113 99 91 84 103 110 59 50 73 75 84 87 61 53 38 29 23 7 358 347 358 18 52 42 53 26 346 324 300 291 295 255 271 254 263 226 238 246 254 269
107 101 98 106 109 93 90 77 55 53 56 54 56 103 91 61 42 34 25 20 24 354 344 356 97 113 182 51 355 344 325 315 332 332 331 290 282 280 272 193 272 221 287
85 86 80 93 97 99 90 72 61 66 68 86 74 101 125 104 49 43 41 49 23 350 341 351 340 225 246 45 333 323 318 295 309 313 311 313 307 297 287 195 243 224 252
70 45 65 87 92 91 74 63 75 75 81 87 92 89 81 89 57 36 18 39 19 349 348 344 323 280 255 335 325 301 251 284 302 300 302 310 304 309 360 353 245 222 228
54 84 71 64 63 60 74 68 73 87 92 82 76 66 56 50 40 355 343 358 0 40 354 333 334 34 22 347 341 333 326 340 338 332 321 304 309 306 304 306 287 272 239
74 74 72 77 67 72 96 92 87 102 100 96 105 85 39 37 25 2 33 34 30 34 355 344 15 15 4 7 355 352 8 353 327 334 317 297 285 277 295 313 308 296 278
83 83 82 84 92 78 65 85 90 67 119 122 107 111 103 51 9 4 14 14 11 359 3 330 357 8 10 355 352 351 343 338 328 300 292 292 288 299 290 255 267 276 271
49 47 35 100 108 88 66 55 83 53 38 111 96 123 135 53 293 320 352 1 342 326 329 350 347 348 353 339 341 347 345 339 339 325 326 319 323 303 295 289 287 295 277
31 28 24 37 124 129 105 72 33 83 62 71 76 93 31 96 346 359 358 349 322 320 79 289 296 330 340 334 334 342 343 339 317 322 317 323 319 325 313 307 290 261 264
39 16 339 45 79 129 129 126 114 337 33 84 86 65 64 37 352 352 0 340 345 119 338 269 266 356 334 337 349 353 328 324 325 328 329 336 321 321 323 321 314 285 248
22 26 73 79 75 110 146 126 147 162 184 230 52 108 311 328 346 344 350 339 358 345 327 327 342 300 341 337 341 3 340 351 342 337 340 332 324 327 338 341 342 343 284
66 45 63 73 63 42 68 61 72 65 76 60 47 333 321 312 314 315 328 1 315 339 17 13 5 30 23 351 334 16 360 349 342 346 335 333 327 337 344 349 354 9 27
58 50 58 53 50 56 63 64 54 52 48 44 30 4 347 6 348 23 342 355 12 24 15 21 6 14 14 351 335 43 5 356 352 346 332 333 335 339 348 1 4 10 20
66 58 40 59 62 68 63 76 82 88 87 83 71 26 337 57 55 40 26 37 31 27 13 26 20 10 3 344 1 17 2 353 348 345 330 336 341 345 351 6 13 14 27
40 75 75 62 77 70 72 78 71 74 69 54 6 21 65 67 61 54 30 13 4 9 360 15 19 19 342 11 14 6 3 349 340 335 327 329 332 339 355 7 15 21 28
179 78 67 83 96 84 63 51 71 78 70 51 32 32 44 43 44 48 47 15 4 4 11 16 14 16 5 27 8 356 359 342 322 310 315 311 321 337 349 16 17 21 33
108 116 113 105 92 107 85 87 85 76 73 60 69 56 48 44 42 28 21 25 14 7 0 349 12 10 23 16 7 350 344 336 311 302 313 297 306 291 351 33 17 44 54
69 95 130 161 144 121 105 101 99 93 78 65 69 47 39 50 34 17 11 358 359 10 2 0 3 2 19 19 10 353 339 330 320 301 301 288 295 298 143 357 328 333 100
49 39 42 62 88 87 98 97 92 96 99 84 84 77 64 24 20 17 5 358 4 4 357 343 348 42 20 12 358 345 341 338 331 329 322 313 332 316 335 176 273 349 93